Regional Weather Roundup
Issued by NWS Pendleton, OR

Home | Current Version | Previous Version | Text Only | Print | Product List | Glossary On
Versions: 1 2 3 4 5 6 7 8 9 10 11 12 13 14 15 16 17 18 19 20 21 22 23 24 25 26 27 28 29 30 31 32 33 34 35 36 37 38 39 40 41 42 43 44 45 46 47 48 49 50
000
ASUS46 KPDT 221125
RWRPDT
PENDLETON REGIONAL WEATHER ROUNDUP
NATIONAL WEATHER SERVICE PENDLETON OREGON
400 AM PDT TUE JUL 22 2014

NOTE: FAIR INDICATES FEW OR NO CLOUDS BELOW 12,000 FEET WITH NO
SIGNIFICANT WEATHER AND/OR OBSTRUCTIONS TO VISIBILITY.

# INDICATES UNOFFICIAL STATION AND DATA

WAZ520-221210-
EAST SLOPES OF WASHINGTON CASCADES

CITY            SKY/WX      TMP DP  RH  WIND    PRES   REMARKS
#BUMPING DAM    N/A         57  N/A N/A S3      N/A
#CLE ELUM HS    N/A         58  52  80  CALM    29.96R
#CLE ELUM LAKE  N/A         57  52  83  E1      29.90S
#CLIFFDEL 2NW   N/A         54  50  86  S1      N/A
#GLENWOOD       N/A         55  53  93  CALM    29.98R
#MANASTASH CYN  N/A         56  49  77  CALM    30.00S
#NELSON         N/A         58  53  83  CALM    29.94S
#NELSON 3SW     N/A         54  51  90  CALM    30.12R
#NILE           N/A         59  53  80  CALM    29.22R
#RONALD 2NW     N/A         58  52  80  NE1     29.90R
#TROUT LAKE 1NE N/A         53  51  93  CALM    29.98S
$$

WAZ521-221210-
SIMCOE HIGHLANDS

CITY            SKY/WX      TMP DP  RH  WIND    PRES   REMARKS
#BICKLETON HS   N/A         64  38  38  W7      30.06S
#CENTERVILLE 1SWN/A         62  48  60  CALM    29.91S
#GOLDENDALE 1S  N/A         61  48  62  CALM    29.98S
#GOLDENDALE 5WNWN/A         62  47  58  W7      29.93F
#GOODNOE HILLS  N/A         70  46  42  W10     29.91F
$$

WAZ026-221210-
KITTITAS VALLEY

CITY            SKY/WX      TMP DP  RH  WIND    PRES   REMARKS
ELLENSBURG AP   LGT RAIN    62  55  78  N5      29.99S
#ELLENSBURG CWU N/A         61  54  78  N7      29.88S
#ELLENSBURG 3NE N/A         59  55  87  NE1     29.99S
#KITTITAS 3S    N/A         60  55  84  CALM    29.90F
#THORP 6N       N/A         59  52  78  N3      29.94R
$$

WAZ027-221210-
YAKIMA VALLEY

CITY            SKY/WX      TMP DP  RH  WIND    PRES   REMARKS
YAKIMA AIRPORT  CLOUDY      64  57  78  W5      29.96S
YAKIMA-VAGABOND LGT RAIN SH 64  52  65  SE2     29.99R
#COWICHE 1N     N/A         64  50  60  CALM    30.13R
#DONALD 2NE     N/A         68  37  32  S1      30.29S
#GRANDVIEW      N/A         66  48  52  CALM    29.94R
#MABTON         N/A         70  52  53  CALM    29.95R
#MOXEE 2E       N/A         64  37  37  N3      29.91S
#NACHES 2SW     N/A         64  55  73  CALM    29.99R
#OUTLOOK DOT    N/A         N/A N/A N/A S1      N/A
#SELAH 8E       N/A         64  45  50  CALM    N/A
#TERRACE HTS    N/A         66  47  50  CALM    29.88S
#TOPPENISH      N/A         70  45  41  CALM    29.84S
#WAPATO 4NE     N/A         69  36  30  S1      30.29S
#WEST VALLEY    N/A         65  55  70  CALM    29.94R
#W YAKIMA       N/A         65  54  68  NW1     29.92R
#WHITE SWAN 5E  N/A         71  47  42  SW15    29.91S
#WILEY CITY 3W  N/A         61  49  65  CALM    29.96R
$$

WAZ028-221210-
LOWER COLUMBIA BASIN...WASHINGTON

CITY            SKY/WX      TMP DP  RH  WIND    PRES   REMARKS
HANFORD         CLOUDY      75  34  22  SW7     29.93R
PASCO           MOCLDY      69  50  51  CALM    29.94R
PROSSER AWOS    N/A         64  54  70  CALM    29.98R
RICHLAND AWOS   MOCLDY      73  36  26  SE3     29.93R
#BASIN CITY 5SW N/A         63  52  67  CALM    29.94R
#BENTON CITY    N/A         68  46  45  CALM    29.83R
#CONNELL 5N     N/A         67  38  34  CALM    29.91S
#CONNELL 5NW    N/A         66  44  45  CALM    29.88S
#ELTOPIA        N/A         67  48  50  CALM    29.88R
#ELTOPIA 6NW    N/A         65  48  54  S3      28.92R
#KENNEWICK 3S   N/A         71  43  36  S2      29.91S
#PASCO-BROADMOORN/A         71  40  32  SE1     29.81R
#PATERSON       N/A         67  51  56  CALM    29.92R
#PROSSER        N/A         73  36  26  S1      29.92R
#SAGEMOOR 2W    N/A         67  48  50  CALM    29.77R
#TOUCHET 2S     N/A         71  44  38  CALM    29.90R
#WEST PASCO     N/A         70  43  38  CALM    29.91F
$$

WAZ029-221210-
FOOTHILLS OF THE BLUES...WASHINGTON

CITY            SKY/WX      TMP DP  RH  WIND    PRES   REMARKS
WALLA WALLA AP  LGT RAIN    71  44  38  S7      29.99R
#COLLEGE PLACE  N/A         69  53  57  E1      29.95S
#DAYTON SCHOOL  N/A         64  39  40  CALM    29.98R
#LOWDEN 2SE     N/A         65  52  63  CALM    29.91S
#PLEASANT VIEW 1N/A         71  33  25  SW1     29.96R
#PRESCOTT       N/A         65  46  50  CALM    29.93R
#SUDBURY        N/A         66  N/A N/A CALM    N/A
#WHITMAN COLLEGEN/A         69  46  44  E3      29.98R
#WAITSBURG 8N   N/A         64  26  23  CALM    29.82S
#WALLA WALLA 5E N/A         65  48  54  W1      N/A
#WALLA WALLA U  N/A         69  49  49  CALM    29.92R
#WHITMAN MISSIONN/A         64  54  70  CALM    29.93S
$$

WAZ030-221210-
BLUE MOUNTAINS...WASHINGTON

CITY            SKY/WX      TMP DP  RH  WIND    PRES   REMARKS
$$

ORZ009-041-WAZ024-221210-
COLUMBIA RIVER GORGE

CITY            SKY/WX      TMP DP  RH  WIND    PRES   REMARKS
HOOD RIVER AP   LGT RAIN    61  57  87  CALM    30.01R
THE DALLES AP   CLOUDY      68  51  55  NW9     29.97S
#ARLINGTON AIRPON/A         70  46  42  W10     N/A
#ARLINGTON HS   N/A         72  45  38  NW1     29.84R
#CELILO DOT     N/A         68  50  53  SE3     N/A
#MOSIER 1S      N/A         60  51  72  SW2     30.06S
#MURDOCK        N/A         67  57  70  NW14    29.98R
#RUFUS DOT      N/A         72  49  44  N3      N/A

$$

ORZ510-221210-
NORTH CENTRAL OREGON

CITY            SKY/WX      TMP DP  RH  WIND    PRES   REMARKS
#CHENOWITH 1W   N/A         59  49  69  NW20    N/A
#COW CYN RST AREN/A         62  52  70  N2      N/A
#DUFUR 9E       N/A         61  48  62  W3      30.00S
#GRASS VALLEY 1SN/A         60  47  62  CALM    29.95S
#KENT DOT       N/A         59  43  55  NE6     N/A
#MAUPIN SCHOOL  N/A         67  54  63  CALM    30.01S
#MORO SCHOOL    N/A         62  52  70  CALM    30.02S
#SHANIKO 5WSW   N/A         60  46  60  NE2     N/A
#SHANIKO 4NW    N/A         59  49  69  N2      30.07S
#TYGH VALLEY 2NEN/A         64  55  73  CALM    29.94S
#WAPANITIA AIRPON/A         62  52  70  CALM    29.94S
#WASCO DOT      N/A         61  47  60  W2      N/A
#WASCO AIRPORT  N/A         62  44  52  W5      N/A
#WASCO 5NE      N/A         63  46  54  W3      29.93F
$$

ORZ511-221210-
CENTRAL OREGON

CITY            SKY/WX      TMP DP  RH  WIND    PRES   REMARKS
BEND AIRPORT    CLOUDY      59  52  78  S6      30.09S
MADRAS AIRPORT  PTCLDY      59  48  67  S5      30.05S
REDMOND AIRPORT CLOUDY      61  50  67  SE5     30.06R
#BEND 6E        N/A         60  50  69  CALM    29.85R
#BEND 1SW       N/A         60  49  67  CALM    N/A
#BEND-AWBREY    N/A         62  50  65  N3      29.91S
#BEND-KIM LN    N/A         61  52  72  CALM    30.06R
#CROOKED RVR RANN/A         65  52  63  S3      29.92S
#CULVER         N/A         62  50  65  CALM    30.01R
#LAKE BILLY CHINN/A         64  31  29  CALM    30.08R
#POWELL BUTTE   N/A         63  47  56  SE7     29.71S
#PRINEVILLE 3N  N/A         60  52  75  N3      29.90S


ORZ509-221210-
EAST SLOPES OF OREGON CASCADES

CITY            SKY/WX      TMP DP  RH  WIND    PRES   REMARKS
#BLUE BOX PASS  N/A         54   2  12  N2      N/A
#BLACK BUTTE RNCN/A         58  51  77  CALM    29.91F
#CAMP SHERMAN   N/A         57  48  72  CALM    29.93R
#LA PINE DOT    N/A         56  53  90  CALM    N/A
#LA PINE 4NW    N/A         55  51  86  CALM    29.97S
#LAVA BUTTE DOT N/A         55  52  90  CALM    N/A
#SISTERS AIRPOR N/A         58  52  80  N1      30.05S
#SISTERS ODOT   N/A         57  N/A N/A CALM    N/A
#SISTERS 1NW    N/A         58  46  64  N6      N/A
#SISTERS 3N     N/A         58  32  37  CALM    30.07S
#SUNRIVER       N/A         58  51  77  CALM    29.81S
#SUNRIVER AP    N/A         57  51  80  CALM    29.88S
#SUTTLE LK DOT  N/A         54  48  80  N3      N/A
#TUMALO 3W      N/A         60  45  58  CALM    29.82S
#WANOGA BUTTE D N/A         51  47  86  W7      N/A

$$

ORZ044-221210-
LOWER COLUMBIA BASIN...OREGON

CITY            SKY/WX      TMP DP  RH  WIND    PRES   REMARKS
HERMISTON       MOCLDY      71  41  34  S9      29.96R
#BOARDMAN SCHOOLN/A         74  38  27  SW1     29.93R
#BOARDMAN 3W    N/A         67  46  47  S3      29.65R
#BOARDMAN 8SW   N/A         69  48  47  SW6     29.93R
#IONE SCHOOL    N/A         70  46  42  SW5     29.98R
#IRRIGON 4NW    N/A         65  45  48  CALM    N/A
#UMATILLA SCHOOLN/A         67  50  54  CALM    29.98R
#UMATILLA       N/A         70  43  38  CALM    29.93R
$$

ORZ507-221210-
NORTHERN FOOTHILLS OF THE BLUES

CITY            SKY/WX      TMP DP  RH  WIND    PRES   REMARKS
PENDLETON AIRPT LGT RAIN    66  41  40  SE3     29.99R
#ADAMS 3WNW     N/A         62  45  54  CALM    29.93S
#ATHENA         N/A         65  46  50  CALM    29.96S
#HELIX SCHOOL   N/A         65  41  41  SE2     29.93R
#HELIX 3N       N/A         67  37  33  S7      29.98R
#HELIX 6SW      N/A         65  40  40  CALM    30.00
#HOLDMAN 5SE    N/A         68  39  35  CALM    29.99R
#HOLDMAN 6E     N/A         66  40  38  CALM    29.76R
#M-F FERNDALE   N/A         67  50  54  CALM    29.96R
#M-F GROVE ELEM N/A         68  46  45  CALM    29.96R
#M-FREEWATER 5SEN/A         66  49  54  CALM    29.98R
#PDT AQUATIC CTRN/A         67  44  43  CALM    29.98R
#PENDLETON DNTN N/A         66  40  38  CALM    29.95S
#PENDLETON 5NE  N/A         65  46  50  CALM    29.95R
#PDT SUNRIDGE   N/A         64  47  54  CALM    30.00R
#PENDLETON 7NW  N/A         65  43  45  SW2     29.15R
#PILOT ROCK     N/A         64  47  54  CALM    30.03R
#TUTUILLA       N/A         69  48  47  CALM    29.89R
#UMAPINE 2E     N/A         64  53  67  CALM    29.93S
#WESTON SCHOOL  N/A         66  44  45  W5      30.00R

$$

ORZ508-221210-
SOUTHERN FOOTHILLS OF THE BLUES

CITY            SKY/WX      TMP DP  RH  WIND    PRES   REMARKS
#AJAX           N/A         N/A N/A N/A W2      30.04R
#CONDON SCHOOL  N/A         62  40  44  CALM    30.01R
#CONDON 5W      N/A         61  45  56  CALM    30.03R
#HEPPNER EOC    N/A         65  41  41  E3      29.90S
#HEPPNER 4NE    N/A         63  44  50  SW2     29.95S
#LEXINGTON 2SE  N/A         65  45  48  CALM    29.97R
#MIKKALO        N/A         65  43  45  CALM    30.02R
#RUGGS 5NE      N/A         62  37  39  E1      30.20S
#RUGGS 2SW      N/A         64  39  40  SW2     30.01R

$$

ORZ502-503-221210-
BLUE MOUNTAINS

CITY            SKY/WX      TMP DP  RH  WIND    PRES   REMARKS
MEACHAM         LGT RAIN    54  52  93  CALM    30.10R
#BATTLE MTN DOT N/A         58  53  83  SE3     N/A
#HARDMAN 10S    N/A         57  43  59  CALM    30.15R
#HEPPNER 15SE   N/A         54  49  83  CALM    30.01F
#LADD CYN SMT   N/A         59  48  67  CALM    N/A
#LADD CREEK ODOTN/A         61  52  72  SW1     N/A
#LONG CREEK HS  N/A         61  52  72  E3      30.03S
#PIKES PEAK     N/A         66  36  33  S5      27.99S
#TOLLGATE       N/A         56  48  74  CALM    30.06S
#TOLLGATE 9W    N/A         63  46  54  SE3     N/A
#TROY SCHOOL    N/A         64  55  73  NW1     29.80R
#UKIAH          N/A         56  53  90  CALM    29.98S
#WESTON 4E      N/A         62  47  58  E3      29.89S
$$

ORZ505-221210-
JOHN DAY BASIN

CITY            SKY/WX      TMP DP  RH  WIND    PRES   REMARKS
#JOHN DAY KJDY  N/A         62  56  81  CALM    29.99S
#MONUMENT HS    N/A         58  48  69  CALM    29.81R
#MT. VERNON 5SE N/A         61  55  81  SE1     30.06S
#WINLOCK        N/A         60  43  53  CALM    30.14R
$$

ORZ506-221210-
OCHOCO AND JOHN DAY HIGHLANDS

CITY            SKY/WX      TMP DP  RH  WIND    PRES   REMARKS
#BUCK CREEK DOT N/A         57  56  96  NE2     N/A
#HORSE RIDGE DO N/A         56  53  90  SE5     N/A
#KEYES SMT DOT  N/A         58  42  55  SW5     N/A
#PAULINA SCHOOL N/A         N/A N/A N/A CALM    30.10R
#PINE MTN OBS   N/A         51  46  83  S9      N/A
#PRAIRIE CITY   N/A         54  52  93  CALM    30.07R
#SENECA 9NW     N/A         53  52  96  CALM    29.91S
$$

ORZ049-221210-
GRANDE RONDE VALLEY

CITY            SKY/WX      TMP DP  RH  WIND    PRES   REMARKS
LA GRANDE       MOCLDY      61  45  56  CALM    30.07R
#COVE           N/A         62  52  70  SW1     29.99R
#COVE SCHOOL    N/A         62  50  65  CALM    30.04S
#COVE 6NW       N/A         58  52  80  CALM    29.99R
#ELGIN 3N       N/A         59  51  75  CALM    29.80R
#ELGIN 1E       N/A         59  53  80  CALM    N/A
#IMBLER SCHOOL  N/A         62  50  65  CALM    30.02R
#ISLAND CITY 4N N/A         58  54  87  CALM    29.89R
#LADD CYN DOT   N/A         64  47  54  CALM    N/A
#UNION 1S       N/A         60  54  81  CALM    29.85R
$$

ORZ050-221210-
WALLOWA COUNTY

CITY            SKY/WX      TMP DP  RH  WIND    PRES   REMARKS
#ENTERPRISE HS  N/A         57  49  75  CALM    30.09S
#IMNAHA SCHOOL  N/A         66  42  42  CALM    30.00S
#IMNAHA 10S     N/A         66  43  43  SW1     30.04S
#JOSEPH 3N      N/A         55  47  74  CALM    30.10F
#JOSEPH 3W      N/A         59  46  62  CALM    29.95F
#LOSTINE        N/A         60  47  62  CALM    29.74S
#MT HOWARD 8000 N/A         52  43  71  S8      30.29F
#PROMISE 1S     N/A         57  48  72  CALM    30.02F
#SHEEP RDG 7000 N/A         56  41  57  CALM    29.92F
#WALLOWA SCHOOL N/A         60  49  67  CALM    30.81S



$$



USA.gov is the U.S. government's official web portal to all federal, state and local government web resources and services.